Flag for Mexico Weather past 2 weeks in Puerto Vallarta, Jalisco, Mexico

Now
79 °F

Light rain. Mostly cloudy.


Feels Like: 82 °F
Forecast: 77 / 87 °F
Wind: 3 mph from East

Location: Puerto Vallarta / Lic

Current Time: Sep 17, 2014 at 12:42:14 AM

Latest Report: Sep 16, 2014 at 11:45 PM


Visibility: 8 mi

Pressure: 29.85 "Hg

Humidity: 84%

Dew point: 73 °F

Location of Puerto VallartaLocation

Historic Weather in Puerto Vallarta — Graph

°F

Puerto Vallarta temperature yesterday

Maximum temperature yesterday: 88 °F (at 12:45 PM)
Minimum temperature yesterday: 75 °F (at 6:47 AM)
Average temperature yesterday: 82 °F

Past Weeks' High & Low Weather Summary

 TemperatureHumidityPressure
High91 °F (Sep 2, 2:45 PM)94% (Sep 4, 4:45 AM)29.93 "Hg (Sep 4, 4:45 AM)
Low73 °F (Sep 10, 9:45 PM)49% (Sep 15, 2:47 PM)29.49 "Hg (Sep 10, 6:47 AM)
Average81 °F79%29.80 "Hg
* Reported Sep 2 12:46 AM — Sep 16 11:45 PM, Puerto Vallarta, Weather by CustomWeather, © 2014

Note: Actual official high and low records may vary slightly from our data, if they occured in-between our weather recording intervals... More about our weather records

Advertising

Puerto Vallarta weather history for previous 24 hours

 ConditionsComfort  
Time TempWeatherWind HumidityBarometerVisibility
11:45 PM
Sep 16
79 °FLight rain. Mostly cloudy.3 mph84%29.85 "Hg8 mi
10:46 PM81 °FMostly cloudy.No wind84%29.84 "Hg12 mi
9:48 PM79 °FMostly cloudy.3 mph89%29.82 "Hg12 mi
8:47 PM81 °FBroken clouds.6 mph89%29.82 "Hg10 mi
7:54 PM81 °FCloudy.7 mph84%29.81 "Hg10 mi
6:49 PM86 °FThunderstorms. Cloudy.7 mph75%29.77 "Hg10 mi
5:49 PM86 °FCloudy.7 mph75%29.78 "Hg10 mi
4:49 PM88 °FCloudy.13 mph70%29.80 "Hg12 mi
3:51 PM88 °FBroken clouds.9 mph75%29.80 "Hg15 mi
2:49 PM88 °FScattered clouds.9 mph70%29.84 "Hg15 mi
1:46 PM88 °FScattered clouds.12 mph70%29.86 "Hg15 mi
12:45 PM88 °FPartly sunny.7 mph62%29.86 "Hg15 mi
10:44 AM84 °FSunny.5 mph70%29.88 "Hg15 mi
9:48 AM81 °FPartly sunny.No wind79%29.86 "Hg15 mi
8:53 AM79 °FPartly sunny.No wind84%29.87 "Hg15 mi
6:47 AM75 °FClear.No wind89%29.84 "Hg10 mi
4:43 AM77 °FPassing clouds.7 mph89%29.86 "Hg10 mi
3:51 AM77 °FOvercast.No wind89%29.87 "Hg10 mi
12:45 AM79 °FMostly cloudy.No wind89%29.92 "Hg10 mi
Weather by CustomWeather, © 2014

See weather overviewHow to use our weather pages